Location: Newark
(17.9939°S, 31.0481°E)
Time: 23:44:45
(UTC+00:00)

Vanguard 2 Rocket - Visible Passes

Search period start: 16 November 2019 00:00
Search period end: 26 November 2019 00:00
Orbit: 554 x 3326 km, 32.9° (Epoch: 16 November)

Date Brightness Start Highest point End Pass type
(mag) Time Alt. Az. Time Alt. Az. Time Alt. Az.
16 Nov 7.4 17:27:58 10° WSW 17:38:26 83° NNW 17:41:19 36° NE visible
17 Nov 8.0 16:25:41 10° WSW 16:38:24 71° SSE 16:45:16 10° ENE visible
17 Nov 8.5 18:45:00 10° W 18:51:04 26° NW 18:51:04 26° NW visible
18 Nov 7.8 17:42:27 10° WSW 17:52:24 50° NW 17:55:03 33° NNE visible
19 Nov 8.0 16:39:56 10° WSW 16:52:42 80° NNW 16:59:01 13° NE visible
19 Nov 9.3 19:01:37 10° WNW 19:04:50 13° NW 19:04:50 13° NW visible
20 Nov 8.5 17:57:32 10° WSW 18:05:58 29° NW 18:08:50 22° N visible
21 Nov 8.5 16:54:27 10° WSW 17:06:34 52° NW 17:12:50 13° NNE visible
22 Nov 9.2 18:13:54 10° W 18:19:21 16° NW 18:22:41 12° NNW visible
23 Nov 9.1 17:09:32 10° WSW 17:20:05 32° NW 17:26:39 10° NNE visible
25 Nov 9.5 17:25:46 10° W 17:33:25 19° NW 17:38:56 10° N visible
